Regional Weather Roundup
Issued by NWS Newport/Morehead, NC

Home | Current Version | Previous Version | Text Only | Print | Product List | Glossary On
Versions: 1 2 3 4 5 6 7 8 9 10 11 12 13 14 15 16 17 18 19 20 21 22 23 24 25 26 27 28 29 30 31 32 33 34 35 36 37 38 39 40 41 42 43 44 45 46 47 48 49 50
000
ASUS42 KMHX 242213
RWRMHX
WEATHER ROUNDUP FOR EASTERN NORTH CAROLINA
NATIONAL WEATHER SERVICE NEWPORT/MOREHEAD CITY NC
600 PM EDT SUN JUL 24 2016

NOTE: "FAIR" INDICATES FEW OR NO CLOUDS BELOW 12,000 FEET
WITH NO SIGNIFICANT WEATHER AND/OR OBSTRUCTIONS TO VISIBILITY

NCZ015>017-031-032-045>047-102-103-242300-
NORTH COAST

CITY           SKY/WX    TMP DP  RH WIND       PRES   REMARKS
EDENTON        SUNNY     94  73  50 SW7       29.98S HX 104
ELIZABETH CITY MOSUNNY   93  75  55 S13       29.97S HX 104
KITTY HAWK     PTCLDY    94  78  59 S5        29.97S HX 108
MANTEO           N/A     90  81  74 SW15      29.98S HX 108

$$

NCZ045>047-081-094-103-104-242300-
CENTRAL COAST

CITY           SKY/WX    TMP DP  RH WIND       PRES   REMARKS
FRISCO         SUNNY     87  78  74 SW9       30.02R HX 100

$$

NCZ095-097-098-100-101-242300-
SOUTHERN COAST

CITY           SKY/WX    TMP DP  RH WIND       PRES   REMARKS
BEAUFORT       SUNNY     86  77  74 SW13      30.02R
CEDAR ISLAND   NOT AVBL
JACKSONVILLE   SUNNY     89  73  59 S12       30.00S
PINEY ISLAND   NOT AVBL
WILMINGTON     MOSUNNY   90  76  63 S8        30.01S HX 101


$$

NCZ011>013-027>030-043-044-078>080-089-090>093-098-242300-
COASTAL PLAIN

CITY           SKY/WX    TMP DP  RH WIND       PRES   REMARKS
AHOSKIE        SUNNY     89  79  70 CALM      29.98S HX 104
CLINTON        MOSUNNY   94  76  57 CALM      30.00R HX 107
ELIZABETHTOWN  MOSUNNY   91  75  59 S8        30.00R HX 101
GOLDSBORO      SUNNY     96  68  40 S6        29.97S HX 101
GREENVILLE     SUNNY     95  75  52 SW5       30.00S HX 107
HAVELOCK       MOSUNNY   89  75  63 S10       30.02S
KENANSVILLE    NOT AVBL
KINSTON        SUNNY     95  73  49 S5        29.99F HX 105
NEW BERN       SUNNY     91  75  59 S10       30.01S HX 101
RICHLANDS      MOSUNNY   91  76  61 S12       30.00S HX 103
ROCKY MOUNT    SUNNY     93  75  55 SW7       29.99S HX 104
WASHINGTON     SUNNY     92  74  54 SW7       29.98S HX 101
WHITEVILLE     MOSUNNY   88  80  76 S3        30.00S HX 104

$$

AMZ130-135-150-152-154-156-158-170-250-252-270-ANZ085-086-088-633-658-670-242300-
MARINE OBSERVATIONS

STATION/POSITION TIME  TEMP    WIND        PRES    WAVE   SWELL
                       AIR SEA DIR/SP/G            HT/PER HT/PER
                 (UTC) (F)     (DEG/KT/KT) (MB)    (FT/S) (FT/S)
CHESAPEAKE LIGHT NOT AVBL
64 E VA BEACH    2150   83 81  200/ 10/ 12 1015.2    2/ 8   2/ 8
DUCK             2100   84 61  150/  2/  4 1014.7
2 E DUCK         2111      79                N/A     1/ 8
OREGON INLET     2100   86 85  190/ 17/ 20 1015.5
13E OREGON INLT  2100      84                N/A     2/ 8   2/ 8
HATTERAS CG      2100   86 83  210/  8/ 12 1015.9
DIAMOND BUOY     2050   85 85  230/ 14/ 16 1016.4    3/ 8   2/ 8
CAPE LOOKOUT     2200   86     210/  9/ 12 1016.1
BEAUFORT LAB     2100   87 85  210/  9/ 13 1015.8
30 SE NEW RVR IN 2108   86 86  210/ 10/ 14 1016.6
30 SE NEW RVR IN 2125      85                N/A     2/ 8
27 SE WRIGHTSVLE 2108   85 85  200/ 10/ 12 1016.9
5 SE WRIGHTSVLE  2108   85 85  210/ 10/ 14 1017.5
225 S CAPE HAT   2150   84 86  200/  4/  6 1018.0    2/ 8   2/ 8
41 SE CHARLESTON 2150   85 86  180/  8/ 10 1016.5    2/ 9   2/ 9

$$



USA.gov is the U.S. government's official web portal to all federal, state and local government web resources and services.